DELTA 1 DEB, 42577

Orbit data source: Space-Track

DELTA 1 DEB, 42577 is space debris in SSO originally from a launch on Tue, 06 Nov 1973 UTC launched from the Air Force Western Test Range (AFWTR). Debris objects in space refer to the collection of defunct objects orbiting the Earth. Examples of debris include non-operational satellites, rocket bodies, and fragments generated from explosions, collisions, or faulty payload assembly.

Loading next visibility...
Identifier
42577, 1973-086HR
Orbit
SSO
Country
Flag of USUS
Related business
Manufacturer
Unknown
Mission
Spacecraft
Bus & Motor
Unknown
Mass
Unknown
Launch date (UTC)
1973-11-06 (53 years ago)
Launch vehicle
Unknown
Launch site
Air Force Western Test Range (AFWTR)
Object type
Payload
Rocket body
Debris
Shape & HBR
Unknown shape, 0.1 m
Radar Cross Section
Small (<0.1 m²)

Expand to show TLE details & history
Last TLE update: 2 days ago

TLE from 2 days ago
0 DELTA 1 DEB
1 42577U 73086HR  26263.01477437  .00000292  00000-0  16189-2 0  9991
2 42577 101.2357 182.3627 0081193  44.6843 316.0748 12.72308482 54360
Epoch: 2026-09-20T00:21Z
TLE epoch observation values (Epoch: 2026-09-20T00:21:16.505Z)
Latitude
0.00001°
Longitude
178.1289°
Altitude
1,330.089 km
Speed
7.213 km/s
True Right ascension
12h 09m 27s
True Declination
0° 00' 00"
Sunlit
Object was in daylight at epoch
Visualization orbit readout
Latitude
Unknown
Longitude
Unknown
Altitude
Unknown
Speed
Unknown
Apparent Right ascension
Unknown
Apparent Declination
Unknown
Sunlit
N/A
Visualization observer readout
Local Sidereal Time
13:48:55
Azimuth
Unknown
Elevation
Unknown
Doppler factor
Unknown
Orbital elements
Apogee altitude
1,432.948 km
Perigee altitude
1,307.128 km
Semi-major axis
7,748.175 km
Eccentricity
0.00812
Inclination
101.2357°
RAAN
182.3627°
Arg. of periapsis
44.6843°
True anomaly
315.42462°
Mean anomaly
316.0748°
Eccentric anomaly
315.75019°
Mean motion
3.18232 °/min
Orbital period
113.12 mins
BSTAR
0.0016189
Loading maneuver chart data...
Computing Atmospheric mass density...
Loading historical data...
Loading historical data...
Loading historical data...
Loading historical data...
Loading historical data...
Loading historical data...
Loading historical data...

Documentation

Showing up to 5 results
|